• In Netherlands
  • List of Countries
  • For 7 days
  • Water Temperature
  • Satellite Maps
  • Weather Map
  • Weather Widgets
  • user-avatar
    Login

    Hourly Weather Sankt Polten

    Today, 24 April, Monday

    Time Temperature Precipitation Wind Pressure Humidity
    00:00 +1°C° 0 mm 2 mps 740 mmHg 92%
    01:00 -1°C° 0 mm 2 mps 740 mmHg 92%
    02:00 -2°C° 0 mm 2 mps 740 mmHg 92%
    03:00 -2°C° 0 mm 2 mps 739 mmHg 91%
    04:00 -3°C° 0 mm 2 mps 739 mmHg 91%
    05:00 +1°C° 0 mm 1 mps 739 mmHg 88%
    06:00 +3°C° 0 mm 1 mps 739 mmHg 84%
    07:00 +5°C° 0 mm 1 mps 739 mmHg 81%
    08:00 +7°C° 0 mm 1 mps 739 mmHg 77%
    09:00 +8°C° 0 mm 1 mps 738 mmHg 73%
    10:00 +10°C° 0 mm 1 mps 738 mmHg 69%
    11:00 +11°C° 0 mm 1 mps 738 mmHg 67%
    12:00 +12°C° 0 mm 2 mps 737 mmHg 66%
    13:00 +13°C° 0 mm 2 mps 736 mmHg 65%
    14:00 +14°C° 0 mm 2 mps 736 mmHg 65%
    15:00 +14°C° 0 mm 2 mps 735 mmHg 65%
    16:00 +14°C° 0 mm 2 mps 735 mmHg 65%
    17:00 +12°C° 0 mm 2 mps 734 mmHg 74%
    18:00 +9°C° 0 mm 2 mps 734 mmHg 83%
    19:00 +8°C° 0 mm 1 mps 733 mmHg 92%
    20:00 +6°C° 0 mm 2 mps 733 mmHg 92%
    21:00 +6°C° 0 mm 2 mps 733 mmHg 93%
    22:00 +5°C° 0 mm 2 mps 733 mmHg 94%
    23:00 +5°C° 0 mm 2 mps 733 mmHg 93%

    Tomorrow, 25 April, Tuesday

    Time Temperature Precipitation Wind Pressure Humidity
    00:00 +5°C° 0 mm 2 mps 733 mmHg 93%
    01:00 +5°C° 0 mm 2 mps 732 mmHg 92%
    02:00 +6°C° 0 mm 1 mps 732 mmHg 91%
    03:00 +5°C° 0 mm 1 mps 731 mmHg 91%
    04:00 +5°C° 0 mm 1 mps 731 mmHg 90%
    05:00 +7°C° 0 mm 1 mps 731 mmHg 86%
    06:00 +9°C° 0 mm 1 mps 731 mmHg 82%
    07:00 +10°C° 0 mm 1 mps 731 mmHg 79%
    08:00 +12°C° 0 mm 1 mps 730 mmHg 73%
    09:00 +14°C° 0 mm 2 mps 730 mmHg 67%
    10:00 +17°C° 0 mm 2 mps 730 mmHg 62%
    11:00 +17°C° 0 mm 2 mps 730 mmHg 59%
    12:00 +18°C° 0 mm 2 mps 729 mmHg 57%
    13:00 +19°C° 0 mm 2 mps 729 mmHg 55%
    14:00 +19°C° 0 mm 2 mps 728 mmHg 56%
    15:00 +19°C° 0 mm 2 mps 728 mmHg 57%
    16:00 +20°C° 0 mm 1 mps 728 mmHg 58%
    17:00 +16°C° 0.1 mm 2 mps 728 mmHg 68%
    18:00 +14°C° 0.1 mm 2 mps 727 mmHg 79%
    19:00 +10°C° 0.1 mm 2 mps 727 mmHg 90%
    20:00 +10°C° 0.7 mm 2 mps 728 mmHg 90%
    21:00 +10°C° 0.7 mm 2 mps 729 mmHg 91%
    22:00 +9°C° 0.7 mm 3 mps 729 mmHg 92%
    23:00 +9°C° 0.2 mm 2 mps 729 mmHg 93%

    Day after tomorrow, 26 April, Wednesday

    Time Temperature Precipitation Wind Pressure Humidity
    00:00 +9°C° 0.2 mm 1 mps 729 mmHg 94%
    01:00 +9°C° 0.2 mm 1 mps 729 mmHg 96%
    02:00 +9°C° 0.2 mm 1 mps 729 mmHg 96%
    03:00 +9°C° 0.2 mm 1 mps 729 mmHg 96%
    04:00 +8°C° 0.2 mm 2 mps 729 mmHg 96%
    05:00 +8°C° 0.4 mm 2 mps 729 mmHg 96%
    06:00 +8°C° 0.4 mm 2 mps 729 mmHg 95%
    07:00 +8°C° 0.4 mm 3 mps 729 mmHg 95%
    08:00 +7°C° 0.7 mm 3 mps 730 mmHg 95%
    09:00 +7°C° 0.7 mm 3 mps 730 mmHg 94%
    10:00 +7°C° 0.7 mm 3 mps 730 mmHg 94%
    11:00 +7°C° 0.6 mm 3 mps 730 mmHg 94%
    12:00 +7°C° 0.6 mm 3 mps 730 mmHg 94%
    13:00 +7°C° 0.6 mm 2 mps 730 mmHg 94%
    14:00 +7°C° 0.7 mm 2 mps 730 mmHg 95%
    15:00 +7°C° 0.7 mm 2 mps 729 mmHg 95%
    16:00 +7°C° 0.7 mm 2 mps 729 mmHg 95%
    17:00 +6°C° 0.5 mm 2 mps 729 mmHg 96%
    18:00 +6°C° 0.5 mm 2 mps 730 mmHg 96%
    19:00 +6°C° 0.5 mm 2 mps 730 mmHg 97%
    20:00 +6°C° 1 mm 2 mps 730 mmHg 97%
    21:00 +5°C° 1 mm 2 mps 729 mmHg 97%
    22:00 +5°C° 1 mm 2 mps 729 mmHg 97%
    23:00 +5°C° 1 mm 2 mps 729 mmHg 97%

    27 April, Thursday

    Time Temperature Precipitation Wind Pressure Humidity
    00:00 +5°C° 1 mm 2 mps 729 mmHg 97%
    01:00 +5°C° 1 mm 2 mps 729 mmHg 97%
    02:00 +4°C° 0.2 mm 2 mps 729 mmHg 97%
    03:00 +4°C° 0.2 mm 2 mps 729 mmHg 97%
    04:00 +4°C° 0.2 mm 2 mps 729 mmHg 97%
    05:00 +4°C° 0.2 mm 2 mps 730 mmHg 96%
    06:00 +4°C° 0.2 mm 2 mps 730 mmHg 96%
    07:00 +5°C° 0.2 mm 2 mps 730 mmHg 95%
    08:00 +5°C° 0.3 mm 2 mps 731 mmHg 94%
    09:00 +5°C° 0.3 mm 2 mps 731 mmHg 93%
    10:00 +6°C° 0.3 mm 2 mps 731 mmHg 92%
    11:00 +6°C° 0.2 mm 2 mps 731 mmHg 90%
    12:00 +7°C° 0.2 mm 2 mps 732 mmHg 88%
    13:00 +7°C° 0.2 mm 2 mps 732 mmHg 87%
    14:00 +7°C° 0.4 mm 2 mps 732 mmHg 88%
    15:00 +7°C° 0.4 mm 2 mps 731 mmHg 89%
    16:00 +7°C° 0.4 mm 2 mps 731 mmHg 89%
    17:00 +7°C° 0.9 mm 2 mps 731 mmHg 92%
    18:00 +6°C° 0.9 mm 2 mps 732 mmHg 94%
    19:00 +7°C° 0.9 mm 1 mps 732 mmHg 96%
    20:00 +6°C° 1.3 mm 2 mps 732 mmHg 97%
    21:00 +5°C° 1.3 mm 2 mps 732 mmHg 97%
    22:00 +5°C° 1.3 mm 2 mps 732 mmHg 97%
    23:00 +5°C° 0.9 mm 2 mps 732 mmHg 97%

    28 April, Friday

    Time Temperature Precipitation Wind Pressure Humidity
    00:00 +5°C° 0.9 mm 2 mps 732 mmHg 97%
    01:00 +5°C° 0.9 mm 2 mps 731 mmHg 97%
    02:00 +4°C° 0.2 mm 2 mps 731 mmHg 97%
    03:00 +4°C° 0.2 mm 2 mps 731 mmHg 97%
    04:00 +4°C° 0.2 mm 2 mps 731 mmHg 97%
    05:00 +4°C° 0.2 mm 2 mps 731 mmHg 96%
    06:00 +3°C° 0.2 mm 3 mps 731 mmHg 96%
    07:00 +4°C° 0.2 mm 3 mps 732 mmHg 95%
    08:00 +4°C° 0.3 mm 3 mps 732 mmHg 94%
    09:00 +5°C° 0.3 mm 3 mps 732 mmHg 93%
    10:00 +5°C° 0.3 mm 3 mps 732 mmHg 92%
    11:00 +5°C° 0.4 mm 4 mps 732 mmHg 91%
    12:00 +6°C° 0.4 mm 4 mps 732 mmHg 90%
    13:00 +6°C° 0.4 mm 5 mps 732 mmHg 89%
    14:00 +6°C° 0.5 mm 5 mps 732 mmHg 89%
    15:00 +5°C° 0.5 mm 5 mps 732 mmHg 88%
    16:00 +5°C° 0.5 mm 5 mps 733 mmHg 88%
    17:00 +5°C° 0.5 mm 4 mps 733 mmHg 90%
    18:00 +4°C° 0.5 mm 4 mps 734 mmHg 91%
    19:00 +4°C° 0.5 mm 3 mps 734 mmHg 93%
    20:00 +3°C° 0.4 mm 3 mps 735 mmHg 93%
    21:00 +3°C° 0.4 mm 3 mps 735 mmHg 94%
    22:00 +3°C° 0.4 mm 3 mps 736 mmHg 94%
    23:00 +2°C° 0.1 mm 3 mps 736 mmHg 95%

    29 April, Saturday

    Time Temperature Precipitation Wind Pressure Humidity
    00:00 +2°C° 0.1 mm 3 mps 736 mmHg 95%
    01:00 +1°C° 0.1 mm 3 mps 736 mmHg 95%
    02:00 +1°C° 0.1 mm 3 mps 736 mmHg 94%
    03:00 +2°C° 0.1 mm 2 mps 737 mmHg 94%
    04:00 +2°C° 0.1 mm 2 mps 737 mmHg 94%
    05:00 +2°C° 0 mm 2 mps 737 mmHg 91%
    06:00 +3°C° 0 mm 2 mps 737 mmHg 88%
    07:00 +3°C° 0 mm 3 mps 738 mmHg 85%
    08:00 +4°C° 0 mm 3 mps 738 mmHg 81%
    09:00 +5°C° 0 mm 3 mps 738 mmHg 76%
    10:00 +7°C° 0 mm 3 mps 737 mmHg 72%
    11:00 +8°C° 0.1 mm 3 mps 737 mmHg 69%
    12:00 +9°C° 0.1 mm 3 mps 737 mmHg 66%
    13:00 +10°C° 0.1 mm 3 mps 737 mmHg 64%
    14:00 +10°C° 0.2 mm 3 mps 737 mmHg 65%
    15:00 +10°C° 0.2 mm 3 mps 737 mmHg 66%
    16:00 +10°C° 0.2 mm 2 mps 737 mmHg 67%
    17:00 +8°C° 0.1 mm 2 mps 737 mmHg 75%
    18:00 +6°C° 0.1 mm 1 mps 737 mmHg 83%
    19:00 +4°C° 0.1 mm 1 mps 737 mmHg 91%
    20:00 +4°C° 0 mm 1 mps 737 mmHg 91%
    21:00 +3°C° 0 mm 1 mps 737 mmHg 92%
    22:00 +3°C° 0 mm 1 mps 738 mmHg 92%
    23:00 +2°C° 0 mm 1 mps 738 mmHg 91%
    Show more